TimeCDT,TemperatureF,Dew PointF,Humidity,Sea Level PressureIn,VisibilityMPH,Wind Direction,Wind SpeedMPH,Gust SpeedMPH,PrecipitationIn,Events,Conditions,WindDirDegrees,DateUTC
12:53 AM,77.0,66.9,71,29.86,10.0,South,12.7,20.7,N/A,,Clear,190,2013-09-19 05:53:00
1:53 AM,75.9,66.0,71,29.86,10.0,SSW,12.7,20.7,N/A,,Clear,200,2013-09-19 06:53:00
2:53 AM,75.0,64.9,71,29.86,10.0,SSW,9.2,17.3,N/A,,Clear,200,2013-09-19 07:53:00
3:53 AM,73.9,64.9,73,29.87,10.0,South,10.4,-,N/A,,Clear,190,2013-09-19 08:53:00
4:53 AM,73.0,66.0,79,29.86,10.0,South,13.8,19.6,N/A,,Clear,190,2013-09-19 09:53:00
5:53 AM,73.9,66.0,76,29.86,10.0,South,12.7,19.6,N/A,,Partly Cloudy,190,2013-09-19 10:53:00
6:53 AM,73.0,66.0,79,29.87,10.0,South,10.4,-,N/A,,Clear,190,2013-09-19 11:53:00
7:53 AM,73.0,66.0,79,29.87,10.0,South,12.7,19.6,N/A,,Mostly Cloudy,190,2013-09-19 12:53:00
8:53 AM,73.9,66.0,76,29.87,10.0,South,13.8,-,N/A,,Clear,190,2013-09-19 13:53:00
9:53 AM,80.1,66.0,62,29.88,10.0,SSW,13.8,23.0,N/A,,Clear,200,2013-09-19 14:53:00
10:53 AM,81.0,66.0,60,29.89,10.0,SSW,13.8,20.7,N/A,,Clear,210,2013-09-19 15:53:00
11:53 AM,87.1,66.9,51,29.88,10.0,SSW,16.1,23.0,N/A,,Clear,200,2013-09-19 16:53:00
12:53 PM,89.1,64.9,45,29.86,10.0,SW,18.4,24.2,N/A,,Clear,220,2013-09-19 17:53:00
1:53 PM,91.0,66.0,44,29.84,10.0,SSW,13.8,20.7,N/A,,Clear,200,2013-09-19 18:53:00
2:53 PM,91.9,63.0,38,29.80,10.0,SSW,18.4,26.5,N/A,,Clear,210,2013-09-19 19:53:00
3:53 PM,91.9,62.1,37,29.77,10.0,SSW,21.9,28.8,N/A,,Partly Cloudy,210,2013-09-19 20:53:00
4:53 PM,91.0,64.0,41,29.75,10.0,SSW,17.3,28.8,N/A,,Partly Cloudy,210,2013-09-19 21:53:00
5:53 PM,88.0,64.9,46,29.75,10.0,South,9.2,19.6,N/A,,Mostly Cloudy,190,2013-09-19 22:53:00
6:41 PM,86.0,66.2,51,29.78,10.0,South,11.5,21.9,N/A,Thunderstorm,Thunderstorm,190,2013-09-19 23:41:00
6:53 PM,86.0,66.0,51,29.77,10.0,SSW,8.1,-,N/A,Thunderstorm,Thunderstorm,200,2013-09-19 23:53:00
7:16 PM,73.4,64.4,73,29.90,8.0,NW,18.4,39.1,0.01,Rain-Thunderstorm,Light Thunderstorms and Rain,310,2013-09-20 00:16:00
7:23 PM,69.8,66.2,88,29.90,2.5,NNW,4.6,26.5,0.10,Rain-Thunderstorm,Thunderstorms and Rain,330,2013-09-20 00:23:00
7:26 PM,69.8,66.2,88,29.90,3.0,NW,8.1,-,0.10,Rain-Thunderstorm,Light Thunderstorms and Rain,310,2013-09-20 00:26:00
7:40 PM,69.8,66.2,88,29.93,1.5,NW,9.2,-,0.33,Rain-Thunderstorm,Heavy Thunderstorms and Rain,320,2013-09-20 00:40:00
7:45 PM,69.8,66.2,88,29.92,0.8,Variable,6.9,-,0.55,Rain-Thunderstorm,Heavy Thunderstorms and Rain,0,2013-09-20 00:45:00
7:53 PM,69.1,66.0,90,29.90,1.0,Calm,Calm,-,0.68,Rain-Thunderstorm,Heavy Thunderstorms and Rain,0,2013-09-20 00:53:00
8:15 PM,69.8,66.2,88,29.92,2.5,Variable,5.8,-,0.21,Rain-Thunderstorm,Light Thunderstorms and Rain,0,2013-09-20 01:15:00
8:22 PM,69.8,66.2,88,29.92,10.0,WSW,9.2,16.1,0.22,Rain-Thunderstorm,Light Rain,240,2013-09-20 01:22:00
8:39 PM,69.8,66.2,88,29.92,4.0,SW,9.2,-,0.28,Rain-Thunderstorm,Light Thunderstorms and Rain,220,2013-09-20 01:39:00
8:53 PM,69.1,66.9,93,29.91,8.0,SSW,8.1,-,0.29,Rain-Thunderstorm,Light Thunderstorms and Rain,210,2013-09-20 01:53:00
9:11 PM,69.8,66.2,88,29.94,4.0,West,5.8,-,0.07,Rain,Rain,270,2013-09-20 02:11:00
9:18 PM,69.8,68.0,94,29.94,2.5,NW,6.9,-,0.10,Rain-Thunderstorm,Heavy Rain,310,2013-09-20 02:18:00
9:26 PM,69.8,66.2,88,29.93,4.0,NNW,4.6,-,0.12,Rain-Thunderstorm,Rain,330,2013-09-20 02:26:00
9:53 PM,69.1,66.9,93,29.91,6.0,SW,8.1,-,0.17,Rain-Thunderstorm,Rain,230,2013-09-20 02:53:00
10:05 PM,69.8,66.2,88,29.93,5.0,SW,5.8,-,0.03,Rain,Rain,230,2013-09-20 03:05:00
10:12 PM,69.8,68.0,94,29.93,6.0,West,3.5,-,0.04,Rain,Rain,270,2013-09-20 03:12:00
10:21 PM,69.8,68.0,94,29.94,7.0,West,4.6,-,0.04,Rain,Light Rain,270,2013-09-20 03:21:00
10:53 PM,68.0,66.0,93,29.89,10.0,WNW,8.1,-,0.05,,Mostly Cloudy,300,2013-09-20 03:53:00
11:14 PM,68.0,66.2,94,29.91,10.0,NW,5.8,-,N/A,,Mostly Cloudy,320,2013-09-20 04:14:00
11:53 PM,68.0,66.0,93,29.89,7.0,NW,8.1,-,N/A,,Overcast,310,2013-09-20 04:53:00